CAPE
0 0 0 0 0 0 0 0 0 0 0 0 0 0 0 0 0 0 0 0 0 0 0 0 0 0 0 0 0 0 0 0 0 0 0 0 0 0 0 0 0 0 0
0 0 0 0 0 0 0 0 0 0 0 0 0 0 0 0 0 0 0 0 0 0 0 0 0 0 0 0 0 0 0 0 0 0 0 0 0 0 0 0 0 0 0
0 0 0 0 0 0 0 0 0 0 0 0 0 0 0 0 0 0 0 0 0 0 0 0 0 0 0 0 0 0 0 0 0 0 0 0 0 0 0 0 0 0 0
0 0 0 0 0 0 0 0 0 0 0 0 0 0 0 0 0 0 0 0 0 0 0 0 0 0 0 0 0 0 0 0 0 0 0 0 0 0 0 0 0 0 0
0 0 0 0 0 0 0 0 0 0 0 0 0 0 0 0 0 0 0 0 0 0 0 0 0 0 1 1 0 0 0 0 0 0 0 0 0 0 0 0 0 0 0
0 0 0 0 0 0 0 0 0 0 0 0 0 0 0 0 0 0 0 0 0 0 0 0 0 0 1 6 6 8 3 0 7 5 1 1 0 0 0 0 0 0 0
0 0 0 0 0 0 0 0 0 0 0 0 0 0 0 0 0 2 3 2 3 3 4 5 4 1 3 2 3 8 6 3 6 1 12 9 2 0 0 0 0 0 0
0 0 0 0 0 0 0 0 0 0 0 0 0 0 0 0 0 3 8 6 6 6 4 5 6 4 5 10 6 2 4 3 5 6 0 0 2 0 2 3 0 0 0
0 0 0 0 0 0 0 0 0 0 0 0 0 0 0 0 1 8 12 7 12 10 5 3 5 4 6 20 13 5 6 9 15 23 19 24 26 21 55 10 5 1 0
0 0 0 0 0 0 0 0 0 0 0 0 0 0 0 0 0 9 14 6 0 5 5 4 13 9 22 28 16 1 0 1 2 3 11 15 8 1 31 43 26 11 0
0 0 0 0 0 0 0 0 0 0 0 0 0 0 0 0 0 4 13 11 5 1 0 1 3 15 23 30 33 5 0 6 2 0 0 0 10 15 16 27 13 7 7
0 0 0 0 0 0 0 0 0 0 0 0 0 0 0 0 0 1 13 24 26 3 0 0 0 17 28 34 31 36 64 68 2 0 0 0 7 12 13 26 28 11 4
0 0 0 0 0 0 0 0 0 0 0 0 0 0 0 0 0 1 16 20 21 6 0 3 36 41 36 9 6 4 4 0 0 0 0 0 0 1 26 40 19 20 9
0 0 0 0 0 0 0 0 0 0 0 0 0 0 0 0 0 0 0 0 4 3 8 0 7 34 45 30 2 0 0 0 0 0 0 0 1 4 16 2 42 0 16
0 0 0 0 0 0 0 0 0 0 0 0 0 0 0 0 0 20 33 10 6 9 31 0 0 0 0 0 8 0 0 0 0 0 0 0 3 3 2 0 31 40 22
0 0 0 0 0 0 0 0 0 1 5 10 15 7 0 22 28 40 41 47 44 43 0 0 0 0 0 0 0 3 13 0 0 0 0 0 2 0 5 6 46 4 7
0 0 0 0 0 0 0 0 0 0 0 0 2 9 15 21 24 33 37 31 14 6 0 0 0 0 0 0 0 0 0 5 0 0 0 1 3 1 0 4 6 7 0
0 0 0 0 0 0 0 0 0 0 0 0 0 3 8 13 22 24 20 2 0 0 0 0 0 0 0 0 0 0 0 0 0 0 0 0 1 1 2 0 19 0 1
0 0 0 0 0 0 0 0 0 0 0 0 0 0 0 3 12 4 6 0 0 0 0 0 0 0 0 0 0 0 2 0 0 0 0 0 0 1 7 0 0 0 0
0 0 0 0 0 0 0 0 0 0 0 0 0 0 0 0 0 0 0 0 0 0 0 0 0 0 0 0 0 0 0 1 0 0 0 0 0 0 0 5 0 0 0
0 0 0 0 0 0 0 0 0 0 0 0 0 0 20 0 0 0 0 0 0 0 0 0 0 0 0 0 0 0 0 0 0 0 0 4 8 4 0 0 0 0 0
0 0 0 0 0 0 0 0 0 0 0 0 0 0 7 0 0 0 0 0 0 0 0 0 0 0 0 0 0 0 0 0 0 0 0 0 0 0 0 0 0 0 0
0 0 0 0 0 0 0 0 0 0 0 0 0 0 0 0 0 0 0 0 0 0 0 0 0 0 0 0 0 0 0 0 0 0 0 0 0 0 0 0 0 0 0
0 0 0 0 0 0 0 0 0 0 0 0 0 0 0 0 0 0 0 0 0 0 0 0 0 0 0 0 0 0 0 0 0 0 0 0 0 0 0 0 0 0 0
0 0 0 0 0 0 0 0 0 0 0 0 0 0 0 0 0 0 0 0 0 0 0 0 0 0 0 0 0 0 0 0 0 0 0 0 0 0 0 0 0 0 0
0 0 0 0 0 0 0 0 0 0 0 0 0 0 0 0 0 0 0 0 0 0 0 0 0 0 0 0 0 2 1 13 0 0 0 0 0 0 0 0 0 0 0
CIN
-0 -0 -0 -0 -0 -0 -0 -0 -0 -0 -0 -0 -0 -0 -0 -0 -0 -0 -0 -0 -0 -0 -0 -0 -0 -0 -0 -0 -0 -0 -0 -0 -0 -0 -0 -0 -0 -0 -0 -0 -0 -0 -0
-0 -0 -0 -0 -0 -0 -0 -0 -0 -0 -0 -0 -0 -0 -0 -0 -0 -0 -0 -0 -0 -0 -0 -0 -0 -0 -0 -0 -0 -0 -0 -0 -0 -0 -0 -0 -0 -0 -0 -0 -0 -0 -0
-0 -0 -0 -0 -0 -0 -0 -0 -0 -0 -0 -0 -0 -0 -0 -0 -0 -0 -0 -0 -0 -0 -0 -0 -0 -0 -0 -0 -0 -0 -0 -0 -0 -0 -0 -0 -0 -0 -0 -0 -0 -0 -0
-0 -0 -0 -0 -0 -0 -0 -0 -0 -0 -0 -0 -0 -0 -0 -0 -0 -0 -0 -0 -0 -0 -0 -0 -0 -0 -0 -0 -0 -0 -0 -0 -0 -0 -0 -0 -0 -0 -0 -0 -0 -0 -0
-0 -0 -0 -0 -0 -0 -0 -0 -0 -0 -0 -0 -0 -0 -0 -0 -0 -0 -0 -0 -0 -0 -0 -0 -0 -0 -0 -0 -0 -0 -0 -1 -0 -0 -0 -0 -0 -0 -0 -0 -0 -0 -0
-0 -0 -0 -0 -0 -0 -0 -0 -0 -0 -0 -0 -0 -0 -0 -0 -0 -0 -0 -0 -0 -0 -0 -0 -0 -1 -0 -0 -0 -0 -1 -3 -1 -0 -1 -1 -0 -0 -0 -0 -0 -0 -0
-0 -0 -0 -0 -0 -0 -0 -0 -0 -0 -0 -0 -0 -0 -0 -0 -0 -0 -0 -0 -0 -0 -0 -0 -0 -0 -0 -0 -0 -0 -0 -0 -0 -3 -0 -0 -1 -0 -2 -0 -0 -0 -0
-0 -0 -0 -0 -0 -0 -0 -0 -0 -0 -0 -0 -0 -0 -0 -0 -0 -0 -0 -0 -0 -0 -0 -0 -0 -0 -0 -0 -0 -0 -0 -0 -0 -0 -0 -0 -0 -2 -3 -3 -1 -0 -0
-0 -0 -0 -0 -0 -0 -0 -0 -0 -0 -0 -0 -0 -0 -0 -0 -0 -0 -0 -0 -0 -0 -0 -0 -0 -0 -0 -0 -0 -0 -0 -0 -0 -0 -0 -0 -0 -0 -0 -0 -2 -8 -2
-0 -0 -0 -0 -0 -0 -0 -0 -0 -0 -0 -0 -0 -0 -0 -0 -0 -0 -0 -0 -1 -0 -0 -0 -0 -0 -0 -0 -0 -0 -0 -0 -0 -0 -0 -0 -0 -0 -0 -0 -0 -0 -0
-0 -0 -0 -0 -0 -0 -0 -0 -0 -0 -0 -0 -0 -0 -0 -0 -0 -0 -0 -0 -0 -0 -0 -0 -0 -0 -0 -0 -0 -0 -1 -0 -0 -1 -0 -0 -0 -0 -0 -0 -0 -1 -1
-0 -0 -0 -0 -0 -0 -0 -0 -0 -0 -0 -0 -0 -0 -0 -0 -0 -0 -0 -0 -0 -1 -0 -0 -0 -0 -0 -0 -0 -0 -0 -0 -7 -5 -0 -0 -0 -1 -0 -0 -0 -1 -2
-0 -0 -0 -0 -0 -0 -0 -0 -0 -0 -0 -0 -0 -0 -0 -0 -0 -0 -0 -0 -0 -0 -0 -1 -0 -0 -0 -0 -0 -0 -0 -0 -0 -0 -0 -0 -0 -0 -0 -0 -0 -2 -5
-0 -0 -0 -0 -0 -0 -0 -0 -0 -0 -0 -0 -0 -0 -0 -0 -0 -0 -0 -0 -0 -0 -1 -3 -0 -0 -0 -0 -1 -2 -0 -0 -0 -0 -0 -0 -0 -0 -0 -0 -0 -0 -1
-0 -0 -0 -0 -0 -0 -0 -0 -0 -0 -0 -0 -0 -0 -0 -0 -0 -0 -0 -1 -2 -1 -0 -0 -0 -0 -0 -0 -0 -0 -0 -0 -0 -0 -0 -0 -1 -2 -1 -0 -0 -1 -2
-0 -0 -0 -0 -0 -0 -0 -0 -0 -0 -0 -0 -0 -0 -0 -0 -0 -0 -0 -0 -0 -0 -0 -0 -0 -0 -0 -0 -0 -0 -0 -0 -0 -0 -0 -0 -0 -0 -0 -0 -0 -2 -4
-0 -0 -0 -0 -0 -0 -0 -0 -0 -0 -0 -0 -0 -0 -0 -0 -0 -0 -0 -0 -0 -0 -0 -0 -0 -0 -0 -0 -0 -0 -0 -0 -0 -0 -1 -0 -0 -1 -0 -0 -0 -2 -0
-0 -0 -0 -0 -0 -0 -0 -0 -0 -0 -0 -0 -0 -0 -0 -0 -0 -0 -0 -0 -0 -0 -0 -0 -0 -0 -0 -0 -0 -0 -0 -0 -0 -0 -0 -0 -0 -0 -0 -0 -0 -0 -2
-0 -0 -0 -0 -0 -0 -0 -0 -0 -0 -0 -0 -0 -0 -0 -0 -0 -0 -0 -0 -0 -0 -0 -0 -0 -0 -0 -0 -0 -0 -0 -0 -0 -0 -0 -0 -0 -0 -0 -0 -0 -0 -0
-0 -0 -0 -0 -0 -0 -0 -0 -0 -0 -0 -0 -0 -0 -0 -0 -0 -0 -0 -0 -0 -0 -0 -0 -0 -0 -0 -0 -0 -0 -0 -0 -0 -0 -0 -0 -0 -0 -1 -0 -0 -0 -0
-0 -0 -0 -0 -0 -0 -0 -0 -0 -0 -0 -0 -0 -0 -0 -0 -0 -0 -0 -0 -0 -0 -0 -0 -0 -0 -0 -0 -0 -0 -0 -0 -0 -0 -0 -0 -0 -1 -0 -0 -0 -0 -0
-0 -0 -0 -0 -0 -0 -0 -0 -0 -0 -0 -0 -0 -0 -0 -0 -0 -0 -0 -0 -0 -0 -0 -0 -0 -0 -0 -0 -0 -0 -0 -0 -0 -0 -0 -0 -0 -0 -0 -0 -0 -0 -0
-0 -0 -0 -0 -0 -0 -0 -0 -0 -0 -0 -0 -0 -0 -0 -0 -0 -0 -0 -0 -0 -0 -0 -0 -0 -0 -0 -0 -0 -0 -0 -0 -0 -0 -0 -0 -0 -0 -0 -0 -0 -0 -0
-0 -0 -0 -0 -0 -0 -0 -0 -0 -0 -0 -0 -0 -0 -0 -0 -0 -0 -0 -0 -0 -0 -0 -0 -0 -0 -0 -0 -0 -0 -0 -0 -0 -0 -0 -0 -0 -0 -0 -0 -0 -0 -0
-0 -0 -0 -0 -0 -0 -0 -0 -0 -0 -0 -0 -0 -0 -0 -0 -0 -0 -0 -0 -0 -0 -0 -0 -0 -0 -0 -0 -0 -0 -0 -0 -0 -0 -0 -0 -0 -0 -0 -0 -0 -0 -0
-0 -0 -0 -0 -0 -0 -0 -0 -0 -0 -0 -0 -0 -0 -0 -0 -0 -0 -0 -0 -0 -0 -0 -0 -0 -0 -0 -0 -0 -0 -0 -0 -0 -0 -0 -0 -0 -0 -0 -0 -0 -0 -0
Wind_Speed
5 5 5 4 4 4 4 4 4 3 5 6 6 6 6 6 5 5 5 6 8 9 8 6 9 6 6 5 4 4 7 6 12 10 7 5 5 7 7 8 9 10 11
5 5 5 4 4 5 5 5 6 6 5 6 6 7 7 7 6 6 8 8 9 11 11 11 11 8 8 7 5 8 8 8 8 14 11 8 8 7 7 9 9 9 10
6 5 4 3 2 2 3 3 4 5 5 5 5 6 8 7 8 7 8 9 10 10 11 11 13 12 12 9 7 9 8 8 8 10 12 7 7 4 6 7 7 9 8
6 5 3 2 1 2 2 3 3 3 5 6 7 7 8 8 9 9 9 10 11 12 13 13 13 13 13 12 11 11 10 10 11 11 11 11 9 6 6 7 6 6 8
5 4 3 2 2 3 4 5 5 6 7 8 10 10 10 9 8 12 13 14 15 16 15 15 14 16 23 21 12 12 13 12 11 11 13 11 10 4 8 5 10 7 9
5 4 3 2 2 4 5 6 7 8 9 9 10 10 12 10 21 24 21 15 16 17 17 15 15 17 19 26 27 28 23 16 17 14 14 15 17 9 8 10 9 8 9
5 4 3 4 4 4 5 6 7 8 9 9 10 10 12 13 22 25 26 15 16 16 16 16 15 12 17 16 22 28 26 28 31 20 20 19 19 14 9 11 13 12 14
4 3 3 4 3 4 5 6 7 7 9 10 10 11 12 11 24 26 27 17 15 16 16 16 16 17 15 17 17 17 17 18 17 15 20 21 18 17 16 14 13 16 13
4 4 3 3 3 5 6 7 7 8 9 10 10 11 12 13 24 26 24 15 14 15 15 16 15 16 21 26 18 17 17 15 17 29 34 37 40 39 29 16 14 12 14
5 4 3 1 2 4 6 6 5 5 10 9 11 11 13 15 22 25 21 11 13 12 14 15 21 23 28 27 18 16 18 15 16 16 16 21 27 26 34 24 17 16 14
5 3 1 1 3 5 4 5 6 7 9 9 11 10 12 13 15 23 24 14 12 12 12 11 11 26 30 29 29 17 18 20 21 17 16 15 16 18 16 17 20 17 15
3 0 2 3 4 4 3 5 5 6 8 9 10 10 8 11 17 20 24 26 25 15 14 13 14 30 32 32 27 32 34 31 14 11 12 13 14 14 14 17 19 17 17
3 3 3 4 5 4 4 7 6 5 6 7 8 9 10 10 10 22 26 28 28 20 14 21 35 36 36 29 31 32 29 14 14 14 15 16 15 15 17 18 20 20 19
4 5 4 4 5 5 5 5 6 5 6 7 8 10 10 10 10 10 12 13 21 18 19 16 21 27 30 29 21 20 14 14 15 15 14 15 14 15 14 16 17 13 12
4 5 4 4 5 6 6 6 6 7 8 9 9 9 11 11 11 24 23 14 13 17 21 11 12 12 13 14 14 12 13 13 13 14 15 14 14 14 16 16 17 14 13
4 4 3 3 4 5 5 7 13 17 18 20 22 16 9 22 27 28 28 30 29 29 12 10 10 10 12 13 13 14 14 14 13 12 12 13 14 14 16 16 17 15 12
5 4 3 4 4 4 4 5 8 9 17 14 13 18 22 22 25 27 27 27 25 21 6 9 10 11 12 13 13 14 15 13 9 10 11 13 14 15 21 16 16 9 11
5 6 4 4 4 3 4 5 5 5 8 11 12 16 18 21 24 25 22 18 11 9 7 9 11 11 12 13 14 13 15 10 9 10 11 12 14 15 8 11 10 12 12
4 4 4 3 3 5 4 4 4 5 6 7 11 14 13 21 21 19 19 4 8 10 10 10 10 11 12 12 13 14 16 10 9 10 11 11 12 11 9 7 8 10 8
4 7 5 3 3 3 3 3 4 4 5 6 6 8 11 9 9 10 8 8 8 8 9 10 11 11 11 12 12 12 13 14 11 10 10 11 11 10 9 7 6 7 8
4 3 5 3 3 3 4 4 4 4 5 5 7 8 18 7 8 9 9 9 9 10 10 10 11 10 10 11 11 11 12 12 11 11 10 10 9 8 6 4 4 6 5
3 4 3 4 3 3 4 3 3 4 4 5 7 7 17 5 6 7 8 8 9 10 9 10 10 10 10 11 11 11 11 12 11 11 10 8 6 5 3 1 1 3 5
4 4 4 3 4 4 3 3 3 3 4 4 5 6 6 5 6 7 7 8 9 9 9 10 10 10 10 11 11 9 10 11 11 10 9 7 5 4 3 3 3 3 5
4 4 4 4 3 3 3 3 3 4 4 4 5 5 6 6 7 8 8 8 8 9 9 9 10 14 13 13 11 11 8 8 9 9 10 6 5 5 4 4 4 5 6
3 3 4 4 3 3 3 3 3 3 4 4 5 3 4 6 7 7 7 8 8 9 10 11 9 14 15 20 18 18 18 9 10 12 7 6 6 7 5 5 5 6 7
4 4 4 3 3 3 4 3 4 4 4 5 4 4 5 6 7 7 7 8 8 10 11 9 11 16 19 14 17 20 19 16 12 14 8 6 5 5 5 7 9 6 8
Wind_Direction
121 117 114 96 80 78 60 31 12 350 360 358 343 340 335 337 334 327 318 308 315 311 307 289 290 279 279 270 259 247 257 246 266 279 269 243 252 249 250 228 227 226 229
160 141 132 107 64 46 29 10 2 354 349 342 338 336 332 329 325 320 317 313 304 306 302 298 293 297 285 276 265 268 257 251 259 270 271 269 241 237 237 240 232 228 229
170 163 140 99 48 353 323 322 327 320 308 306 309 302 319 317 314 307 294 298 291 286 286 284 288 289 286 285 274 276 274 269 257 262 272 264 264 227 253 246 233 235 228
184 173 145 101 21 339 323 331 343 331 325 331 329 323 322 320 314 302 299 295 291 289 288 285 284 282 283 285 279 276 275 273 273 268 265 267 254 239 233 251 250 228 244
177 164 132 85 35 23 17 11 353 348 342 333 329 326 325 322 317 320 314 304 299 293 288 286 283 282 283 283 285 284 281 276 272 272 272 269 257 217 232 228 247 241 223
167 147 109 84 61 36 13 352 343 340 336 331 327 321 319 316 317 314 310 302 300 298 298 298 299 295 289 287 285 284 279 276 272 270 269 266 268 257 235 239 237 232 255
146 153 117 79 47 19 350 343 338 330 325 322 318 316 311 309 311 311 311 303 299 295 294 296 297 295 299 294 292 289 289 285 279 281 274 264 269 262 263 237 236 231 240
129 108 82 55 22 349 344 335 325 320 317 313 310 307 300 302 310 310 308 302 297 295 294 294 293 294 291 291 286 280 274 271 273 270 275 279 270 272 264 255 246 242 246
122 107 76 38 348 339 327 318 312 310 306 300 298 304 300 298 306 306 308 301 294 293 292 288 287 287 287 289 285 285 282 280 277 275 272 275 272 274 260 261 243 239 244
148 133 125 156 277 290 288 293 294 284 291 298 296 295 292 292 298 301 306 295 292 290 286 282 280 285 289 290 288 285 283 284 283 285 279 277 273 271 268 253 250 244 239
132 126 154 236 247 256 260 274 286 286 288 290 288 288 284 281 283 298 305 298 291 286 280 280 278 283 288 289 287 281 275 277 274 276 271 267 273 265 256 251 247 240 240
105 196 264 269 286 284 262 271 264 270 277 285 288 290 281 280 281 296 300 296 293 293 287 281 278 280 280 277 275 269 269 272 273 278 278 276 271 271 261 252 247 242 242
154 245 276 283 277 270 268 279 282 268 266 283 290 293 293 286 281 284 286 292 287 285 280 280 289 291 291 292 289 287 285 276 270 265 262 263 261 264 283 269 250 229 239
204 243 252 250 268 261 266 265 268 267 276 281 283 284 284 294 297 298 283 277 276 280 282 279 279 288 292 293 288 277 270 267 259 257 260 264 265 259 254 262 263 221 220
214 243 243 241 250 268 256 259 261 257 257 271 278 290 301 304 301 304 312 310 304 297 304 313 313 307 301 296 291 276 265 258 255 256 257 260 262 259 254 252 253 232 217
223 237 228 242 249 263 273 283 281 292 296 297 301 304 302 306 310 315 314 310 316 325 324 322 305 302 299 301 299 292 289 255 245 251 256 261 259 252 256 251 256 212 211
217 237 239 252 250 254 268 280 302 312 309 307 314 321 316 315 322 316 322 325 338 332 316 307 300 300 302 300 297 292 285 282 260 252 257 261 263 261 246 237 238 231 212
216 234 221 240 242 246 249 262 268 291 308 313 315 321 322 328 323 336 336 349 327 330 308 306 304 305 303 303 305 300 301 277 263 260 260 262 269 263 245 231 240 222 203
220 228 221 229 240 249 257 269 263 275 281 290 309 320 318 323 328 341 343 319 314 315 316 312 307 307 308 307 305 308 313 289 270 270 267 270 277 289 293 235 220 193 197
225 236 229 225 246 258 257 256 271 276 286 289 298 297 309 316 342 333 330 325 318 311 313 311 311 309 306 307 310 313 318 323 300 279 278 278 276 278 279 291 226 189 197
218 220 227 237 233 234 234 238 258 274 279 286 289 294 312 1 321 316 318 321 317 317 314 314 313 311 310 313 316 320 320 319 322 320 323 318 304 280 259 237 198 207 202
211 226 216 222 229 240 239 235 255 276 274 285 292 298 327 321 302 303 309 309 311 309 313 315 312 312 314 315 315 320 322 321 322 322 321 322 322 327 330 359 123 145 143
213 220 231 240 224 233 239 228 268 261 269 274 285 297 309 299 299 298 301 304 311 314 317 317 315 315 319 319 320 312 321 320 320 317 321 326 331 339 354 28 40 92 127
198 212 227 237 226 222 230 259 269 267 270 278 282 289 292 294 298 295 298 306 309 312 314 316 315 318 321 325 326 333 316 327 329 322 328 332 340 351 8 26 47 92 108
202 221 228 231 228 229 256 264 263 259 263 268 272 274 275 288 294 296 302 307 309 313 313 314 315 320 323 322 323 335 339 345 349 343 337 348 8 16 29 42 56 75 90
221 227 232 227 231 231 249 256 260 263 272 275 269 273 278 286 290 291 299 306 311 311 306 309 311 317 321 320 325 334 347 -0 11 0 351 355 15 28 44 55 63 72 81